COSMOS 2534 (758)

Last updated on Sept. 26, 2020, 5:40 a.m. UTC

1 44299U 19030A   20269.68148480  .00000056  00000-0  00000-0 0  9990
2 44299  64.5971 263.5590 0015117 283.0333 249.7017  2.13102007 10387
UTC
Height (km)
Latitude
Longitude
Inclination
Orbital Period
UTC large
Height (km)
Speed (km/s)
/
Latitude / Longitude
Inclination (degrees)
Orbital Period (minutes)
Azimuth
Elevation
Range (km)
Doppler Factor
iOS Compass Heading
iOS Angle

Next 30 passes for location: Hong Kong

Rise time Rise Azimuth (degrees) Set time Set Azimuth (degrees) Duration Max altitude (degrees)

No matching passes for this satellites